001  
ASUS46 KPDT 151325  
RWRPDT  
PENDLETON REGIONAL WEATHER ROUNDUP  
NATIONAL WEATHER SERVICE PENDLETON OREGON  
600 AM PDT WED AUG 15 2018  
 
NOTE: FAIR INDICATES FEW OR NO CLOUDS BELOW 12,000 FEET WITH NO  
SIGNIFICANT WEATHER AND/OR S TO VISIBILITY
.  
 
# INDICATES UNOFFICIAL STATION AND DATA  
 
WAZ520-151410-  
EAST SLOPES OF WASHINGTON CASCADES  
 
CITY SKY/WX TMP DP RH WIND PRES REMARKS
 
#BULLFROG N/A 48 47 96 CALM N/A  
#CLE ELUM HS N/A 50 44 80 CALM 29.90R  
#EASTON DOT N/A N/A N/A N/A CALM N/A  
#ELK HTS DOT N/A 58 58 100 CALM N/A  
#GLENWOOD N/A 43 41 93 CALM 29.87F  
#NILE N/A 51 44 77 W1 29.30R  
#TEANAWAY 4NE N/A 0 0 100 CALM N/A  
#TROUT LAKE 1E N/A 44 39 82 CALM 29.96S  

 
 
WAZ521-151410-  
SIMCOE HIGHLANDS  
 
CITY SKY/WX TMP DP RH WIND PRES REMARKS
 
#BICKLETON HS N/A 58 33 39 W7 29.63R  
#SATUS PASS DOT N/A 61 37 41 CALM N/A  
#CENTERVILLE 1SWN/A 46 30 53 CALM 29.81S  
#GOLDENDALE 1NE N/A 54 11 18 N2 N/A  
#GOLDENDALE 4W N/A 50 26 39 CALM 29.95R  
#GOODNOE HILLS N/A 67 40 37 N1 29.81R  
#LYLE 6NE N/A 62 42 48 CALM 29.84S  
#PITT 4SE N/A 65 37 35 CALM 29.83S  

 
 
WAZ026-151410-  
KITTITAS VALLEY  
 
CITY SKY/WX TMP DP RH WIND PRES REMARKS
 
ELLENSBURG AP CLOUDY 52 44 74 CALM 29.93R HAZE  
#ELLENSBURG CWU N/A 53 48 83 CALM 29.82R  
#ELLENSBURG 3NE N/A 48 44 86 CALM 28.02S  
#ELLENSBURG 1E N/A 50 47 89 CALM 29.94R  
#KITTITAS 3S N/A 46 44 93 CALM 29.86R  
#MANASTASH RDG N/A 67 66 97 W8 N/A  
#ROCKY CYN DOT N/A 56 49 77 W5 N/A  
#RYEGRASS DOT N/A 59 44 57 CALM N/A  
#THORP 6N N/A 54 48 80 CALM 29.85R  

 
 
WAZ027-151410-  
YAKIMA VALLEY  
 
CITY SKY/WX TMP DP RH WIND PRES REMARKS
 
SUNNYSIDE AP CLEAR 53 50 89 CALM 29.88R FOG  
YAKIMA AIRPORT CLEAR 53 46 77 W8 29.90R HAZE  
YAKIMA-VAGABOND N/A 57 37 47 CALM 29.89R  
#DONALD 2NE N/A 66 12 12 NW6 28.73  
#GRANDVIEW N/A 56 49 77 CALM 29.86R  
#MABTON N/A 54 47 77 CALM 29.87R  
#NACHES 2SW N/A 64 48 56 W3 29.93R  
#OUTLOOK DOT N/A 56 52 86 CALM 29.84R  
#PARKER DOT N/A 68 45 44 S2 29.87R  
#TERRACE HTS N/A 56 46 69 CALM 29.81R  
#TOPPENISH N/A 57 52 83 CALM 29.77R  
#I82 S UMTANUM RN/A 65 46 50 NE6 N/A  
#UNION GAP DOT N/A 53 48 83 CALM 29.92R  
#W YAKIMA N/A 63 45 52 NW2 29.84R  
#WILEY CITY 3W N/A 55 40 57 CALM 29.88R  
#ZILLAH DOT N/A 56 51 83 CALM N/A  

 
 
WAZ028-151410-  
LOWER COLUMBIA BASIN...WASHINGTON  
 
CITY SKY/WX TMP DP RH WIND PRES REMARKS
 
HANFORD N/A 60 42 51 E3 29.85R SMOKE  
PASCO CLEAR 53 49 86 N3 29.87R HAZE  
PROSSER AWOS N/A 52 50 93 CALM 29.91R  
RICHLAND AWOS CLEAR 59 50 72 E5 29.88R HAZE  
#BASIN CITY 5SW N/A 53 47 80 CALM 29.84R  
#BENTON CITY N/A 58 45 62 CALM 29.75R  
#CONNELL 5N N/A 53 42 66 CALM 29.84S  
#CONNELL 5NW N/A 54 43 66 CALM 29.80R  
#ELTOPIA 6NW N/A 62 45 54 CALM 28.85R  
#KAHLOTUS N/A 53 39 59 S9 29.84R  
#KENNEWICK 3S N/A 65 46 50 CALM 29.84R  
#PROSSER DOT N/A 55 49 80 CALM 29.87S  
#SAGEMOOR 2W N/A 61 46 58 NW1 29.71R  
#TOUCHET 2S N/A 45 40 82 CALM 29.84R  

 
 
WAZ029-151410-  
FOOTHILLS OF THE BLUES...WASHINGTON  
 
CITY SKY/WX TMP DP RH WIND PRES REMARKS
 
WALLA WALLA AP CLEAR 62 38 41 E5 29.89R HAZE  
#CLYDE 6NW N/A 55 41 59 CALM 29.83R  
#DELANEY DOT N/A 48 39 71 SE2 29.90S  
#PLEASANT VIEW 1N/A 63 40 43 CALM 29.84R  
#PRESCOTT N/A 54 38 55 CALM 29.85R  
#WHITMAN COLLEGEN/A 64 42 45 CALM 29.88R  
#WAITSBURG 6SSE N/A 57 35 43 SE2 29.68R  
#WAITSBURG 8N N/A 0 N/A N/A W5 29.65R  
#WALLA WALLA 5E N/A 62 40 44 NE2 N/A  
#WALLA WALLA U N/A 58 46 64 CALM 29.84R  
#WHITMAN MISSIONN/A 51 46 83 CALM 29.86R  

 
 
WAZ030-151410-  
BLUE MOUNTAINS...WASHINGTON  
 
CITY SKY/WX TMP DP RH WIND PRES REMARKS
 
#DIXIE 5SE N/A 72 35 26 SW1 29.90R  

 
 
ORZ009-041-WAZ024-151410-  
COLUMBIA RIVER GORGE  
 
CITY SKY/WX TMP DP RH WIND PRES REMARKS
 
HOOD RIVER AP CLEAR 55 46 72 S3 29.90R HAZE  
THE DALLES AP CLEAR 57 42 57 SE5 29.87R HAZE  
#ARLINGTON AIRPON/A 65 44 46 W3 29.85R  
#CELILO DOT N/A 66 46 48 S1 N/A  
#LYLE N/A 64 43 46 NE2 29.87S  
#MARYHILL N/A 64 45 50 N2 29.74R  
#MURDOCK N/A 65 49 56 NW6 29.82R  
#RUFUS DOT N/A 63 41 44 S6 N/A  
#SMITHVILLE N/A 63 47 56 N3 29.85R  
 

 
 
ORZ510-151410-  
NORTH CENTRAL OREGON  
 
CITY SKY/WX TMP DP RH WIND PRES REMARKS
 
#ANTELOPE N/A 53 34 48 CALM 29.70R  
#COW CYN RST AREN/A 68 34 28 N1 N/A  
#DUFUR N/A 52 39 61 CALM 29.82R  
#DUFUR 9E N/A 72 39 30 CALM 29.85S  
#GRASS VALLEY 1SN/A 62 33 34 SW3 29.97R  
#KENT DOT N/A 61 31 32 S2 N/A  
#MAUPIN SCHOOL N/A 61 41 48 CALM 29.96R  
#SHANIKO 5WSW N/A 69 31 24 N6 N/A  
#TYGH VALLEY 2NEN/A 63 42 46 CALM 29.85R  
#WAPANITIA AIRPON/A 56 43 62 CALM 29.85R  
#WASCO DOT N/A 52 33 48 SE2 N/A  
#WASCO 5NE N/A 61 35 38 CALM 29.82S  

 
 
ORZ511-151410-  
CENTRAL OREGON  
 
CITY SKY/WX TMP DP RH WIND PRES REMARKS
 
BEND AIRPORT PTCLDY 59 36 42 S7 30.01R HAZE  
MADRAS AIRPORT CLEAR 54 36 50 SE7 29.99R  
PRINEVILLE AP PTCLDY 54 30 40 S6 30.01R HAZE  
REDMOND AIRPORT CLEAR 53 34 48 SE5 29.99R HAZE  
#ASHWOOD SCHOOL N/A 53 33 46 CALM 29.94R  
#BEND-AWBREY N/A 62 38 41 CALM 29.81R  
#BEND-KIM LN N/A 52 39 61 CALM 29.79R  
#CULVER N/A 57 40 53 CALM 29.57S  
#CULVER 8W N/A 57 29 34 CALM 29.98R  
#LAKE BILLY CHINN/A 60 N/A N/A CALM 30.02R  
#POWELL BUTTE N/A 64 34 33 CALM 29.96R  
#PRINEVILLE N/A 52 41 66 CALM 29.93S  
#PRINEVILLE 3N N/A 51 42 71 E2 29.85R  
#WARM SPRINGS N/A 56 37 49 CALM 29.74R  
 

 
 
 
ORZ509-151410-  
EAST SLOPES OF OREGON CASCADES  
 
CITY SKY/WX TMP DP RH WIND PRES REMARKS
 
SISTERS AWOS N/A 50 36 58 CALM 29.97R  
#BLUE BOX PASS N/A 66 N/A N/A N1 N/A  
#CAMP SHERMAN N/A 43 34 70 CALM 29.93R  
#LA PINE 4NW N/A 44 31 60 CALM 29.90R  
#LAVA BUTTE DOT N/A 53 32 45 NE2 N/A  
#SISTERS ODOT N/A 48 34 58 CALM N/A  
#SISTERS 3N N/A 46 29 51 CALM 30.03R  
#SUNRIVER N/A 48 39 71 CALM 29.87R  
#TUMALO 3W N/A 66 36 33 W2 29.68R  
#WANOGA BUTTE D N/A 63 31 30 NE2 N/A  
 

 
 
ORZ044-151410-  
LOWER COLUMBIA BASIN...OREGON  
 
CITY SKY/WX TMP DP RH WIND PRES REMARKS
 
HERMISTON CLEAR 52 42 69 CALM 29.87R  
#BOARDMAN SCHOOLN/A 52 44 74 E1 29.86R  
#BOARDMAN 8SW N/A 60 40 47 SW3 29.87R  
#ECHO 8SW N/A 56 43 62 CALM 29.89R  
#I-84 EX 198 DOTN/A 63 44 50 NE6 N/A  
#IONE SCHOOL N/A 57 37 47 CALM 29.86R  
#UMATILLA N/A 57 43 59 CALM 29.79R  

 
 
ORZ507-151410-  
NORTHERN FOOTHILLS OF THE BLUES  
 
CITY SKY/WX TMP DP RH WIND PRES REMARKS
 
PENDLETON AIRPT CLEAR 59 39 47 E8 29.90R HAZE  
#ADAMS 3WNW N/A 50 36 58 CALM 29.84S  
#ATHENA N/A 50 40 68 CALM 29.88R  
#CAYUSE N/A 65 41 41 E10 29.82R  
#HELIX SCHOOL N/A 51 40 66 CALM 29.85R  
#HELIX 3N N/A 62 40 44 S1 29.93S  
#HOLDMAN 6E N/A 62 42 48 SE1 29.64R  
#M-FREEWATER 5SEN/A 66 42 42 NE6 29.89R  
#PENDLETON DNTN N/A 53 35 50 E1 29.89S  
#PDT AQUATIC CTRN/A 53 36 52 CALM 29.85R  
#PDT SUNRIDGE N/A 47 39 74 CALM 29.92R  
#PENDLETON 6SE N/A 57 43 59 CALM 29.80R  
#PENDLETON 7NW N/A 53 39 59 CALM 30.50S  
#PILOT ROCK N/A 62 37 39 CALM 29.94R  
#TUTUILLA N/A 46 39 76 CALM 29.95S  
 

 
 
ORZ508-151410-  
SOUTHERN FOOTHILLS OF THE BLUES  
 
CITY SKY/WX TMP DP RH WIND PRES REMARKS
 
#AJAX N/A 68 31 25 CALM 30.09R  
#HEPPNER EOC N/A 61 34 36 S8 29.78R  
#HEPPNER 4NE N/A 62 32 32 SE3 29.82S  
#LEXINGTON 2SE N/A 61 38 42 SE7 29.89R  
#OLEX 4N N/A 59 37 44 S3 29.87R  
#RUGGS 5NE N/A 59 31 34 CALM 30.14S  
#RUGGS 2SW N/A 65 34 31 S9 29.84S  
 

 
 
ORZ502-503-151410-  
BLUE MOUNTAINS  
 
CITY SKY/WX TMP DP RH WIND PRES REMARKS
 
MEACHAM CLEAR 39 34 82 CALM 30.03S HAZE  
#BATTLE MTN DOT N/A 54 32 43 S2 N/A  
#GRANITE N/A 38 23 54 CALM 29.80R  
#HARDMAN 10S N/A 60 32 35 CALM 29.93R  
#HEPPNER 15SE N/A 55 33 43 CALM 25.55S  
#LADD CYN SMT N/A 49 37 63 S2 N/A  
#LADD CREEK ODOTN/A 53 38 57 S3 N/A  
#N POWDER DOT N/A 43 41 93 S1 N/A  
#PIKES PEAK N/A 72 36 27 CALM 27.99S  
#SUMMERVILLE 5NWN/A 51 36 56 CALM 26.67R  
#TOLLGATE N/A 54 34 47 CALM 30.12R  
#TROY SCHOOL N/A 52 44 74 CALM 29.77R  
#UKIAH N/A 39 33 79 CALM 29.86R  
#WESTON 4E N/A 67 38 34 CALM 29.78S  

 
 
ORZ505-151410-  
JOHN DAY BASIN  
 
CITY SKY/WX TMP DP RH WIND PRES REMARKS
 
JOHN DAY CLEAR 60 33 36 E9 30.03R  
#ANTELOPE 9ESE N/A 58 35 42 SW1 N/A  
#DAYVILLE SCHOOLN/A 58 34 40 CALM 29.95S  
#MITCHELL 8NW N/A 67 34 29 CALM 29.83R  
#MONUMENT HS N/A 52 38 59 CALM 29.93R  

 
 
ORZ506-151410-  
OCHOCO AND JOHN DAY HIGHLANDS  
 
CITY SKY/WX TMP DP RH WIND PRES REMARKS
 
#HORSE RIDGE DO N/A 42 22 45 SW1 N/A  
#PAULINA ODOT N/A 51 31 46 CALM N/A  
#PINE MTN OBS N/A 65 34 31 N1 N/A  
#PRAIRIE CITY N/A 46 36 68 CALM 30.14S  
#SENECA N/A 41 N/A N/A CALM N/A  
#SENECA 9NW N/A 41 30 65 CALM 29.85R  

 
 
ORZ049-151410-  
GRANDE RONDE VALLEY  
 
CITY SKY/WX TMP DP RH WIND PRES REMARKS
 
LA GRANDE CLEAR 49 36 61 N3 30.01R HAZE  
#COVE SCHOOL N/A 49 39 68 CALM 30.01S  
#COVE 6NW N/A 45 38 76 CALM 29.90R  
#ELGIN 3N N/A 46 32 58 CALM 29.98R  
#ELGIN 1E N/A 47 35 63 CALM N/A  
#IMBLER SCHOOL N/A 47 37 68 CALM 29.96R  
#ISLAND CITY 4N N/A 60 56 87 CALM 29.89R  
#LADD CYN DOT N/A 58 35 42 SE6 N/A  
#UNION 1S N/A 49 38 66 CALM 29.88R  

 
 
ORZ050-151410-  
WALLOWA COUNTY  
 
CITY SKY/WX TMP DP RH WIND PRES REMARKS
 
#ENTERPRISE HS N/A 43 36 76 CALM 29.80R  
#IMNAHA SCHOOL N/A 55 38 53 N2 29.98R  
#JOSEPH N/A 53 39 59 CALM 30.25R  
#JOSEPH 3N N/A 42 34 73 CALM 30.07R  
#JOSEPH 3W N/A 59 36 42 SW1 29.91R  
#LOSTINE N/A 42 36 79 CALM 29.71R  
#LOSTINE 3SE N/A 49 33 54 W5 30.10R  
#MT HOWARD 8000 N/A 61 25 25 W6 30.31S  
#PROMISE 1S N/A 52 36 54 CALM 29.95R  
#WALLOWA LAKE N/A 55 38 53 CALM 30.09S  
#WALLOWA SCHOOL N/A 41 37 86 CALM 29.99R  
 

 
 
CLICK HERE TO GO TO PREVIOUS BULLETINS.

The Nexlab OR Page
The Nexlab WA Page Main Text Page